| time (UTC) | temp F | wind direction | speed MPH | gust MPH | rain 1hr in | rain 24hr in | rain mn in | humidity % | barometer mb |
| 20260503023802 | 69 | 288 | 0.0 | 5.0 | 0.00 | 0.00 | 2.16 | 69 | 1018.6 |
| 20260503020802 | 69 | 264 | 0.0 | 0.0 | 0.00 | 0.00 | 2.16 | 69 | 1018.6 |
| 20260503013802 | 69 | 359 | 0.0 | 4.0 | 0.00 | 0.00 | 2.16 | 69 | 1018.7 |
| 20260503010802 | 70 | 258 | 0.0 | 0.0 | 0.00 | 0.00 | 2.16 | 69 | 1018.9 |
| 20260503003802 | 70 | 254 | 0.0 | 0.0 | 0.00 | 0.00 | 2.15 | 69 | 1019.4 |
| 20260503000802 | 70 | 250 | 0.0 | 1.0 | 0.00 | 0.00 | 2.12 | 69 | 1019.3 |
| 20260502233802 | 71 | 359 | 0.0 | 0.0 | 0.00 | 0.00 | 2.09 | 69 | 1019.2 |
| 20260502230802 | 71 | 359 | 0.0 | 0.0 | 0.00 | 0.00 | 1.99 | 69 | 1019.5 |
| 20260502223801 | 72 | 359 | 0.0 | 4.0 | 0.00 | 0.00 | 1.91 | 69 | 1019.4 |
| 20260502220802 | 72 | 112 | 0.0 | 1.0 | 0.00 | 0.00 | 1.44 | 69 | 1019.7 |
| 20260502213802 | 74 | 359 | 0.0 | 6.0 | 0.00 | 0.00 | 0.76 | 69 | 1019.2 |
| 20260502210802 | 74 | 359 | 0.0 | 0.0 | 0.00 | 0.00 | 0.21 | 69 | 1018.2 |
| 20260502203802 | 77 | 89 | 3.0 | 9.0 | 0.00 | 0.00 | 0.01 | 69 | 1017.6 |
| 20260502200802 | 79 | 4 | 0.0 | 4.0 | 0.00 | 0.00 | 0.00 | 69 | 1017.0 |
| 20260502193801 | 79 | 4 | 0.0 | 4.0 | 0.00 | 0.00 | 0.00 | 69 | 1017.0 |
| 20260502190801 | 79 | 34 | 0.0 | 9.0 | 0.00 | 0.00 | 0.00 | 69 | 1017.3 |
| 20260502183802 | 79 | 18 | 5.0 | 5.0 | 0.00 | 0.00 | 0.00 | 69 | 1017.1 |
| 20260502180801 | 79 | 27 | 0.0 | 9.0 | 0.00 | 0.00 | 0.00 | 69 | 1017.8 |
| 20260502163802 | 78 | 354 | 0.0 | 10.0 | 0.00 | 0.00 | 0.00 | 69 | 1018.5 |
| 20260502160802 | 77 | 359 | 0.0 | 5.0 | 0.00 | 0.00 | 0.00 | 69 | 1019.2 |
| 20260502150802 | 77 | 359 | 0.0 | 10.0 | 0.00 | 0.00 | 0.00 | 69 | 1018.6 |
| 20260502123802 | 77 | 335 | 8.0 | 8.0 | 0.00 | 0.00 | 0.00 | 69 | 1016.7 |
| 20260502120802 | 77 | 322 | 0.0 | 14.0 | 0.00 | 0.00 | 0.00 | 69 | 1016.5 |
| 20260502113802 | 76 | 341 | 0.0 | 0.0 | 0.00 | 0.00 | 0.00 | 69 | 1015.8 |
| 20260502110802 | 76 | 335 | 0.0 | 0.0 | 0.00 | 0.00 | 0.00 | 69 | 1016.1 |
| 20260502103802 | 76 | 359 | 0.0 | 8.0 | 0.00 | 0.00 | 0.00 | 69 | 1016.2 |
| 20260502100801 | 77 | 341 | 6.0 | 12.0 | 0.00 | 0.00 | 0.00 | 69 | 1015.4 |
| 20260502090802 | 76 | 101 | 0.0 | 4.0 | 0.00 | 0.00 | 0.00 | 69 | 1013.8 |
| 20260502070802 | 76 | 267 | 0.0 | 2.0 | 0.00 | 0.00 | 0.00 | 69 | 1015.3 |
| 20260502063802 | 76 | 268 | 0.0 | 1.0 | 0.00 | 0.00 | 0.00 | 69 | 1015.9 |
| 20260502060801 | 76 | 268 | 0.0 | 0.0 | 0.00 | 0.00 | 0.00 | 69 | 1015.9 |
| 20260502053802 | 76 | 263 | 0.0 | 0.0 | 0.00 | 0.00 | 0.00 | 69 | 1016.3 |
| 20260502050802 | 76 | 269 | 0.0 | 0.0 | 0.00 | 0.00 | 0.00 | 69 | 1016.3 |
| 20260502043801 | 77 | 264 | 0.0 | 0.0 | 0.00 | 0.00 | 0.00 | 69 | 1016.6 |
| 20260502040802 | 77 | 270 | 0.0 | 0.0 | 0.00 | 0.00 | 0.00 | 69 | 1016.4 |
| 20260502033802 | 78 | 268 | 0.0 | 0.0 | 0.00 | 0.00 | 0.00 | 69 | 1016.6 |
| 20260502030802 | 78 | 266 | 0.0 | 4.0 | 0.00 | 0.00 | 0.00 | 69 | 1016.8 |